Regional Weather Roundup
Issued by NWS Charleston, SC

Current Version | Previous Version | Text Only | Print | Product List | Glossary Off
Versions: 1 2 3 4 5 6 7 8 9 10 11 12 13 14 15 16 17 18 19 20 21 22 23 24 25 26 27 28 29 30 31 32 33 34 35 36 37 38 39 40 41 42 43 44 45 46 47 48 49 50

000
ASUS42 KCHS 261012
RWRCHS

REGIONAL WEATHER ROUNDUP
NATIONAL WEATHER SERVICE CHARLESTON SC
600 AM EDT FRI MAY 26 2017

NOTE: "FAIR" INDICATES FEW OR NO CLOUDS BELOW 12,000 FEET WITH NO
SIGNIFICANT WEATHER AND/OR OBSTRUCTIONS TO VISIBILITY.

NOT ALL STATIONS ARE QUALITY CONTROLLED. USE DATA WITH CAUTION...
ESPECIALLY DEWPOINT OBSERVATIONS.

SCZ027-030-031-034>040-042>050-261100-
...SOUTHEAST SOUTH CAROLINA...

CITY           SKY/WX    TMP DP  RH WIND       PRES   REMARKS
N CHARLESTON   CLEAR     62  52  69 W6        29.96R
WATERFRONT PRK   N/A     65  56  72 VRB3      29.95R
JOHNS ISLAND   FAIR      63  55  77 CALM      29.97R
PINOPOLIS        N/A     64  57  77 SW10      29.85R
MONCKS CORNER  FAIR      55  52  88 SW3       29.96R
SUMMERVILLE    FAIR      55  54  94 CALM      29.97R
BEAUFORT MCAS  CLEAR     63  55  75 W8        29.98R
BEAUFORT ARPT  NOT AVBL
HILTON HEAD IS NOT AVBL
WALTERBORO     SUNNY     59  54  82 W6        29.98R
ALLENDALE      FAIR      55  55 100 CALM      29.97R

...SOUTHERN MIDLANDS AND PEE DEE...

CITY           SKY/WX    TMP DP  RH WIND       PRES   REMARKS
GEORGETOWN     FAIR      55  54  94 SW5       29.96R
KINGSTREE      FAIR      54  52  94 CALM      29.94R
ORANGEBURG     CLEAR     57  53  86 CALM      29.96R
BARNWELL       FAIR      55  54  94 CALM      29.97R
AIKEN          FAIR      52  50  93 SW5       30.00R
MANNING        NOT AVBL
COLUMBIA       CLEAR     57  52  83 SW5       29.94R
SUMTER         CLEAR     59  52  77 W7        29.91R
FLORENCE       CLEAR     57  54  89 W6        29.92R
MYRTLE BEACH   CLEAR     63  54  72 W9        29.94R
N MYRTLE BEACH PTCLDY    62  54  74 W5        29.91R

$$

GAZ063-065-086>088-099>101-113>116-118-119-134>141-150-261100-
...SOUTHEAST GEORGIA...

CITY           SKY/WX    TMP DP  RH WIND       PRES   REMARKS
SAVANNAH ARPT  CLEAR     58  52  80 W5        30.00R
HUNTER AAF     CLEAR     58  57  94 CALM      29.98R
FORT STEWART   CLEAR     56  53  90 CALM      29.97R
STATESBORO     CLEAR     55  55 100 CALM      29.98R
SYLVANIA       SUNNY     56  56 100 CALM      29.99R
CLAXTON        FAIR     N/A N/A N/A CALM      29.99R

...CSRA...CENTRAL AND FAR SOUTHEAST GEORGIA...

CITY           SKY/WX    TMP DP  RH WIND       PRES   REMARKS
THOMSON        CLEAR     53  52  95 CALM      30.03R
AUGUSTA-BUSH   CLEAR     56  52  86 CALM      29.96R
AUGUSTA-DANIEL CLEAR     64  49  57 W7        29.97R
SWAINSBORO     FAIR      52  52 100 CALM      30.00R
VIDALIA        CLEAR     55  55 100 CALM      30.00R
EASTMAN        FAIR      51  51  99 CALM      30.03R FOG
HAZLEHURST     FAIR      58  58 100 CALM      30.00R
ALMA           CLEAR     54  52  93 CALM      30.00R
WAYCROSS       CLEAR     57  57 100 SW3       30.02R
JESUP          FAIR      52  50  93 CALM      30.01R
BAXLEY         FAIR      54  54 100 CALM      30.00R
BRUNSWICK      CLEAR     59  55  88 CALM      30.01R
SAINT SIMONS   CLEAR     63  57  81 W3        30.00R

$$

SCZ027-028-034-036>038-045-046-048>050-GAZ119-141-261100-
...LAKE AND SUPPLEMENTAL COASTAL OBSERVATIONS...

STATION/POSITION TIME  TEMP    WIND        PRES    WAVE   SWELL
                       AIR SEA DIR/SP/G            HT/PER HT/PER/DIR
                 (UTC) (F)     (DEG/KT/KT) (MB)    (FT/S) (FT/S/D)
WINYAH BAY       0845   63     250/  6     1013.0
LAKE MURRAY      0920   64     280/ 12/ 16 1012.9R
ACE BASIN NERRS  NOT AVBL
FORT PULASKI     0948   65     250/  4/  6 1015.9R
SAPELO ISLAND    0900   65     260/  6     1015.0

$$

ANZ835-935-AMZ111-154-330-350-352-354-370-450-454-472-261100-
...C-MAN AND BUOY OBSERVATIONS...

STATION/POSITION TIME  TEMP    WIND        PRES    WAVE   SWELL
                       AIR SEA DIR/SP/G            HT/PER HT/PER/DIR
                 (UTC) (F)     (DEG/KT/KT) (MB)    (FT/S) (FT/S/D)
BUOY 41004       0950   73 74  290/ 17/ 21 1014.0R   5/ 6   2/ 90/13
BUOY 41008       0850   74 76  280/ 12/ 14 1014.6    2/ 7   2/100/ 7
FOLLY BEACH CMAN 0900   64     270/  3/  5 1014.4R
CAPERS NEARSHORE 0908   74 76  290/ 14/ 19 1013.6R
FRIPP NEARSHORE  0908   70 76  290/ 12/ 16 1013.8R


STATION/POSITION TIME  TEMP    WIND        PRES    WAVE   SWELL
                       AIR SEA DIR/SP/G            HT/PER HT/PER/DIR
                 (UTC) (F)     (DEG/KT/KT) (MB)    (FT/S) (FT/S/D)
5E ST. MARYS GA  0900      78                N/A     2/ 3
FRYING PAN BUOY  0950   73 75  260/ 19/ 25 1013.0R   7/ 8   2/290/14
BUOY 41025       0950   72 78  270/ 25/ 31 1009.6R   9/ 8
CAPE LOOKOUT NC  0900   70     270/ 22/ 29 1010.2R
BUOY 41002       0850   76 76  270/ 17/ 21 1013.5    9/ 8   3/280/ 9
BUOY 41010       0950   79 78  300/ 10/ 12 1015.0R   4/ 5   3/230/ 5
ST AUGUSTINE FL  1000   63 74  250/  7/  8 1017.0R


$$




USA.gov is the U.S. government's official web portal to all federal, state and local government web resources and services.